This is the latest recevied weather packets stored in our database for station/object KO4T-4. If no packets are shown the sender has not sent any weather packets the latest 10 day(s).
| Time | Temp. | Humidity | Pressure | Rain* | Wind** | Luminosity | Snow |
|---|---|---|---|---|---|---|---|
| 1777830604 | 18.89° C | 34% | 1017.2 hPa | 0 mm | - | - | - |
| 1777830303 | 18.33° C | 34% | 1017.2 hPa | 0 mm | - | - | - |
| 1777830004 | 18.33° C | 33% | 1017.2 hPa | 0 mm | - | - | - |
| 1777829703 | 17.78° C | 32% | 1017.2 hPa | 0 mm | - | - | - |
| 1777829404 | 17.22° C | 35% | 1017.2 hPa | 0 mm | - | - | - |
| 1777829104 | 16.67° C | 38% | 1017.5 hPa | 0 mm | - | - | - |
| 1777828804 | 16.67° C | 36% | 1017.4 hPa | 0 mm | - | - | - |
| 1777828503 | 17.22° C | 32% | 1017.5 hPa | 0 mm | - | - | - |
| 1777828204 | 16.11° C | 32% | 1017.6 hPa | 0 mm | - | - | - |
| 1777827903 | 16.67° C | 31% | 1017.8 hPa | 0 mm | - | - | - |
| 1777827604 | 16.67° C | 36% | 1017.9 hPa | 0 mm | - | - | - |
| 1777827303 | 16.67° C | 32% | 1017.8 hPa | 0 mm | - | - | - |
| 1777827004 | 16.67° C | 32% | 1017.9 hPa | 0 mm | - | - | - |
| 1777826703 | 16.67° C | 35% | 1018 hPa | 0 mm | - | - | - |
| 1777826404 | 16.67° C | 39% | 1018.1 hPa | 0 mm | - | - | - |
| 1777826104 | 15.56° C | 38% | 1018.2 hPa | 0 mm | - | - | - |
| 1777825804 | 15° C | 39% | 1018.3 hPa | 0 mm | - | - | - |
| 1777825504 | 15.56° C | 36% | 1018.5 hPa | 0 mm | - | - | - |
| 1777825204 | 15.56° C | 36% | 1018.6 hPa | 0 mm | - | - | - |
| 1777824904 | 16.11° C | 36% | 1018.6 hPa | 0 mm | - | - | - |
| 1777824604 | 15.56° C | 41% | 1018.6 hPa | 0 mm | - | - | - |
| 1777824304 | 15.56° C | 37% | 1018.6 hPa | 0 mm | - | - | - |
| 1777824004 | 15° C | 40% | 1018.6 hPa | 0 mm | - | - | - |
| 1777823703 | 15° C | 39% | 1018.7 hPa | 0 mm | - | - | - |
| 1777823404 | 15° C | 43% | 1018.8 hPa | 0 mm | - | - | - |
* Rain latest hour (hover to see other rain measurements)
** Current wind speed in m/s (hover to see current wind gust speed)